sat.trackr.live / text

‹ back to catalog

GPS BIIF-3 (PRN 24)

NORAD 38833 · 2012-053A

PAYLOAD ACTIVE UNKNOWN

§ Identity

Operator
Country
US
Launch date
2012-10-04
Launch site
AFETR
Launch vehicle
Mass (kg)
RCS (m²)
5.47

Purposes: earth_obs, nav

External: N2YO · Heavens-Above · Gunter

§ Orbital elements

Epoch: 2026-09-19T13:07:59.993760Z

Period
718.00 min
Inclination
53.5975°
Eccentricity
0.0185891
Mean motion
2.00557208 rev/d
Perigee alt
19,689.0 km
Apogee alt
20,676.5 km
Semi-major
26,560.9 km
B*
0.0000e+0
RAAN
139.7304°
Arg perigee
67.4936°
Mean anomaly
294.5409°
Rev number
10,133

§ Raw data

GPS BIIF-3  (PRN 24)1 38833U 12053A   26262.54722215 -.00000015  00000+0  00000+0 0  99972 38833  53.5975 139.7304 0185891  67.4936 294.5409  2.00557208101335

JSON: /api/v1/satellites/38833 · /tle

For live sub-satellite position, see the globe view (requires WebGL).

§ Visibility from observer

Set your observer location to see the next 7 days of passes ≥ 10°. The values pass through the URL so the page stays shareable.

No JS? Fill the form by hand. The geolocation button needs JavaScript.